Location: Unspecified
(43.4680°N, 87.1740°E)
Time: 04:49:39
(UTC+00:00)

SL-14 R/B - Pass Details

Date: 17 January 2020
Orbit: 518 x 555 km, 82.4° (Epoch: 26 February)

Event Time Altitude Azimuth Distance (km) Brightness Sun altitude
Rises 12:17:57 0° 186° (S) 2,719 7.2 -13.6°
Reaches altitude 10° 12:20:06 10° 186° (S) 1,827 6.3 -13.9°
Maximum altitude 12:24:08 87° 99° (E) 557 3.2 -14.6°
Drops below altitude 10° 12:28:10 10° 9° (N) 1,826 5.7 -15.3°
Enters shadow 12:29:44 - 9° (N) 2,471 6.4 -15.6°
